This is the latest recevied weather packets stored in our database for station/object IZ1UQG-2. If no packets are shown the sender has not sent any weather packets the latest 10 day(s).
| Time | Temp. | Humidity | Pressure | Rain* | Wind** | Luminosity | Snow |
|---|---|---|---|---|---|---|---|
| 1777970223 | 11.67° C | 90% | 1012.8 hPa | 0.76 mm | - | 79 W/m² | - |
| 1777968664 | 11.67° C | 91% | 1012.7 hPa | 2.79 mm | - | 86 W/m² | - |
| 1777968004 | 11.11° C | 91% | 1012.7 hPa | 3.56 mm | - | 81 W/m² | - |
| 1777967884 | 11.11° C | 91% | 1012.8 hPa | 3.81 mm | - | 81 W/m² | - |
| 1777967704 | 11.11° C | 90% | 1012.8 hPa | 3.81 mm | - | 70 W/m² | - |
| 1777966804 | 11.11° C | 91% | 1012.8 hPa | 4.83 mm | - | 67 W/m² | - |
| 1777966625 | 11.11° C | 91% | 1012.8 hPa | 4.83 mm | - | 67 W/m² | - |
| 1777966205 | 11.11° C | 91% | 1012.9 hPa | 4.83 mm | - | 51 W/m² | - |
| 1777966024 | 11.67° C | 91% | 1012.9 hPa | 4.83 mm | - | 42 W/m² | - |
| 1777965604 | 11.67° C | 90% | 1012.8 hPa | 4.32 mm | - | 25 W/m² | - |
| 1777965184 | 11.67° C | 90% | 1012.8 hPa | 4.57 mm | - | 18 W/m² | - |
| 1777964464 | 11.11° C | 90% | 1012.6 hPa | 4.32 mm | - | 21 W/m² | - |
| 1777964344 | 11.11° C | 90% | 1012.5 hPa | 4.32 mm | - | 21 W/m² | - |
| 1777964164 | 11.11° C | 90% | 1012.4 hPa | 4.32 mm | - | 19 W/m² | - |
| 1777964044 | 11.11° C | 90% | 1012.5 hPa | 4.32 mm | - | 19 W/m² | - |
| 1777963984 | 11.11° C | 90% | 1012.4 hPa | 4.32 mm | - | 18 W/m² | - |
| 1777963864 | 11.11° C | 90% | 1012.5 hPa | 4.32 mm | - | 16 W/m² | - |
| 1777963683 | 11.67° C | 90% | 1012.4 hPa | 4.32 mm | - | 12 W/m² | - |
| 1777963444 | 11.67° C | 90% | 1012.3 hPa | 4.06 mm | - | 16 W/m² | - |
| 1777963333 | 11.67° C | 90% | 1012.3 hPa | 4.32 mm | - | 19 W/m² | - |
| 1777962904 | 11.67° C | 90% | 1012.4 hPa | 4.06 mm | - | 19 W/m² | - |
| 1777962604 | 11.67° C | 89% | 1012.4 hPa | 4.06 mm | - | 18 W/m² | - |
| 1777962184 | 11.67° C | 89% | 1012.4 hPa | 3.81 mm | - | 16 W/m² | - |
| 1777961824 | 11.67° C | 89% | 1012.4 hPa | 3.3 mm | - | 16 W/m² | - |
| 1777961354 | 11.67° C | 89% | 1012.4 hPa | 3.3 mm | - | 12 W/m² | - |
* Rain latest hour (hover to see other rain measurements)
** Current wind speed in m/s (hover to see current wind gust speed)